This demonstration page uses our WeatherBlox Daily Observations layout. Learn more.

Left ArrowRight Arrow

38.83388, -104.82136

Hourly Observations for January 23, 2022

Temp ( °F °C ) Dew Point ( °F °C ) Humidity (%) Winds ( mph kmh ) Pressure ( in mb ) Visibility ( mi km ) Precip ( " mm )
12:58 am 00:58 Clear 33 0.4 20 -6.9 58 58 SE 6 9 30.02 1017 10 16 0.00 0.00
1:58 am 01:58 Clear 30 -1.1 20 -6.7 66 66 WSW 6 9 30.01 1016 10 16 0.00 0.00
2:58 am 02:58 Clear 31 -0.7 19 -7.1 62 62 ESE 5 7 30.01 1016 10 16 0.00 0.00
3:58 am 03:58 Clear 32 -0.2 14 -9.9 48 48 W 3 6 29.98 1015 10 16 0.00 0.00
4:58 am 04:58 Clear 29 -1.4 16 -8.8 58 58 Calm 29.97 1015 10 16 0.00 0.00
5:58 am 05:58 Clear 29 -1.7 15 -9.6 55 55 Calm 29.95 1014 10 16 0.00 0.00
6:58 am 06:58 Clear 31 -0.8 14 -10.2 49 49 W 5 7 29.95 1014 10 16 0.00 0.00
7:58 am 07:58 Sunny 32 0 15 -9.7 48 48 Calm 29.92 1013 10 16 0.00 0.00
8:58 am 08:58 Sunny 34 1.1 15 -9.5 45 45 ENE 7 11 29.91 1013 10 16 0.00 0.00
9:58 am 09:58 Sunny 35 1.9 18 -8 48 48 NNE 3 6 29.91 1013 10 16 0.00 0.00
10:58 am 10:58 Sunny 36 2 18 -7.9 48 48 NW 9 15 29.91 1013 10 16 0.00 0.00
11:58 am 11:58 Sunny 39 3.9 17 -8.2 41 41 Calm 29.85 1011 10 16 0.00 0.00
12:58 pm 12:58 Sunny 43 6 19 -7.3 38 38 NE 5 7 29.78 1008 10 16 0.00 0.00
1:58 pm 13:58 Sunny 43 6 18 -7.6 37 37 E 3 6 29.76 1008 10 16 0.00 0.00
2:58 pm 14:58 Sunny 42 5.6 18 -8 37 37 ENE 5 7 29.72 1007 10 16 0.00 0.00
3:58 pm 15:58 Sunny 39 4 17 -8.4 40 40 E 3 6 29.72 1007 10 16 0.00 0.00
4:58 pm 16:58 Sunny 38 3.3 17 -8.1 43 43 ESE 6 9 29.74 1007 10 16 0.00 0.00
5:58 pm 17:58 Clear 35 1.9 18 -8 48 48 Calm 29.75 1007 10 16 0.00 0.00
6:58 pm 18:58 Clear 34 1.1 17 -8.2 50 50 W 5 7 29.75 1007 10 16 0.00 0.00
7:58 pm 19:58 Clear 34 1.1 17 -8.2 50 50 Calm 29.72 1006 10 16 0.00 0.00
8:58 pm 20:58 Clear 37 2.6 15 -9.3 42 42 WSW 8 13 29.69 1005 10 16 0.00 0.00
9:58 pm 21:58 Clear 38 3.2 16 -9.1 40 40 WSW 8 13 29.68 1005 10 16 0.00 0.00
10:58 pm 22:58 Clear 37 2.8 15 -9.5 40 40 Calm 29.65 1004 10 16 0.00 0.00
11:58 pm 23:58 Clear 38 3.6 15 -9.7 37 37 WSW 7 11 29.62 1003 10 16 0.00 0.00

Powered by AerisWeather